Location: Winnipeg
(49.8830°N, 97.1670°W)
Time: 19:39:22
(UTC-06:00)

Envisat - Pass Details

Date: 10 December 2022
Orbit: 763 x 765 km, 98.2° (Epoch: 28 January)

Event Time Altitude Azimuth Distance (km) Brightness Sun altitude
Rises 05:37:30 0° 9° (N) 3,246 6.3 -24.3°
Reaches altitude 10° 05:39:55 10° 2° (N) 2,315 5.4 -23.9°
Enters shadow 05:41:45 21° 351° (N) 1,672 4.6 -23.6°
